[[{"header":{"parameterUnit":"m.s-1","parameterCategory":1,"la1":30.2991,"la2":30.254,"lo1":-89.0895,"lo2":-89.0444,"dy":0.0017,"dx":0.0017,"nx":28,"ny":28,"refTime":"2023-07-27T03:00:00:Z","depth":0,"parameterNumber":2,"parameterNumberName":"U-component_of_WINDS"},"data":[0,0,0,0,0,0,0,0,0,0,0,0,0,0,0,0,0,0,0,0,0,0,0,0,0,0,0,0,0,0,0,0,0,0,0,0,0,0,0,0,0,0,0,0,0,0,0,0,0,0,0,0,0,0,0,0,0,0,-0.1174,-0.1175,0,-0.1317,-0.1319,-0.132,-0.1428,-0.1429,-0.143,-0.1431,-0.1575,-0.1578,-0.1581,0,0,0,0,0,0,0,0,0,0,0,0,0,-0.099,-0.0993,-0.1174,-0.1175,-0.1177,-0.1317,-0.1319,-0.1321,-0.1427,-0.1429,-0.143,-0.1431,-0.1574,-0.1577,-0.1581,0,0,0,0,0,0,0,0,0,0,0,0,0,-0.1095,-0.0994,-0.1173,-0.1247,-0.1255,-0.1316,-0.1319,-0.1321,-0.1427,-0.1429,-0.143,-0.1432,-0.1573,-0.1577,-0.1581,-0.1579,0,0,-0.1595,-0.1597,0,0,0,0,0,0,0,0,-0.1089,-0.1102,-0.1235,-0.1242,-0.1252,-0.1356,-0.1307,-0.1408,-0.1427,-0.1362,-0.1431,-0.1432,-0.1501,-0.1511,-0.1535,-0.1586,-0.1592,-0.1595,-0.1598,-0.16,-0.1601,0,0,0,0,0,0,0,-0.1082,-0.1096,-0.123,-0.1236,-0.1247,-0.1273,-0.1289,-0.1327,-0.1421,-0.1368,-0.1376,-0.1391,-0.1506,-0.153,-0.1539,-0.1594,-0.1595,-0.1599,-0.1602,-0.1603,-0.1651,-0.1649,0,0,0,0,0,0,-0.1063,-0.109,-0.1226,-0.1235,-0.1172,-0.1275,-0.1293,-0.1321,-0.1421,-0.1438,-0.139,-0.1396,-0.1522,-0.1534,-0.1544,-0.1548,-0.16,-0.1604,-0.1606,-0.1652,-0.165,-0.1649,0,0,0,0,0,0,-0.1059,-0.1074,-0.122,-0.1164,-0.1185,-0.1277,-0.1307,-0.1323,-0.1348,-0.1438,-0.1455,-0.1398,-0.1524,-0.1538,-0.157,-0.1555,-0.1606,-0.161,-0.1654,-0.1652,-0.165,-0.1555,0,0,0,0,0,0,-0.1053,-0.1072,-0.1073,-0.1164,-0.1187,-0.1243,-0.1306,-0.1325,-0.1355,-0.1364,-0.145,-0.1466,-0.1526,-0.1563,-0.1574,-0.1562,-0.1613,-0.1655,-0.1653,-0.165,-0.156,-0.155,-0.1542,0,0,0,0,0,-0.1046,-0.104,-0.1072,-0.1088,-0.119,-0.1242,-0.1256,-0.1326,-0.1354,-0.1355,-0.1413,-0.1463,-0.1555,-0.1565,-0.1579,-0.1567,-0.1657,-0.1654,-0.1651,-0.1564,-0.1552,-0.1542,0,0,0,0,0,0,-0.0944,-0.1053,-0.109,-0.1114,-0.1168,-0.126,-0.1264,-0.1311,-0.1358,-0.1364,-0.1449,-0.1467,-0.1489,-0.1532,-0.1542,-0.157,-0.1612,-0.1611,-0.1542,-0.1531,-0.1522,-0.1511,-0.1617,0,0,0,0,0,-0.0925,-0.0959,-0.1052,-0.1063,-0.1089,-0.1171,-0.1197,-0.1246,-0.1305,-0.1329,-0.1389,-0.1444,-0.1485,-0.1511,-0.1554,-0.1567,-0.1587,-0.1566,-0.1557,-0.1549,-0.1547,-0.1556,-0.1548,-0.1639,-0.1639,-0.1639,0,0,-0.0884,-0.0948,-0.0964,-0.1044,-0.1092,-0.1125,-0.119,-0.1221,-0.1246,-0.1333,-0.1367,-0.1413,-0.148,-0.1502,-0.1515,-0.1538,-0.1526,-0.1545,-0.1538,-0.1541,-0.1552,-0.1544,-0.1536,-0.1637,-0.1637,-0.1637,0,0,-0.0827,-0.0879,-0.0894,-0.0941,-0.1013,-0.1068,-0.1071,-0.1157,-0.1191,-0.1226,-0.1292,-0.1322,-0.1392,-0.1437,-0.1468,-0.1428,-0.1475,-0.1439,-0.1391,-0.1399,-0.1392,-0.1386,-0.137,-0.1364,-0.1438,-0.1437,-0.1437,0,-0.0767,-0.0819,-0.0895,-0.0923,-0.0956,-0.1037,-0.1052,-0.1094,-0.1176,-0.1196,-0.1221,-0.131,-0.1361,-0.1395,-0.1385,-0.1408,-0.1414,-0.143,-0.1387,-0.1382,-0.1377,-0.1363,-0.1358,-0.1433,-0.1433,-0.1434,-0.1434,0,-0.0742,-0.0777,-0.078,-0.0858,-0.0891,-0.0912,-0.0991,-0.1015,-0.1062,-0.1114,-0.1148,-0.1212,-0.1269,-0.1281,-0.1327,-0.1321,-0.1333,-0.1371,-0.1415,-0.1362,-0.1351,-0.1346,-0.1425,-0.1427,-0.1429,-0.143,0,0,-0.0623,-0.0743,-0.0743,-0.0779,-0.0864,-0.0892,-0.0917,-0.0974,-0.0992,-0.1046,-0.1068,-0.1125,-0.1161,-0.1197,-0.1249,-0.1256,-0.1219,-0.1294,-0.1297,-0.1277,-0.1215,-0.1185,-0.1177,-0.1251,-0.1251,-0.125,-0.1209,0,-0.0578,-0.0628,-0.0697,-0.0722,-0.0755,-0.0833,-0.0854,-0.0908,-0.0958,-0.0992,-0.1047,-0.1085,-0.113,-0.1152,-0.1163,-0.1221,-0.1207,-0.1225,-0.1271,-0.1272,-0.1251,-0.1172,-0.114,-0.1098,-0.1205,-0.1205,-0.1204,0,-0.0532,-0.0582,-0.0611,-0.0694,-0.071,-0.0728,-0.0785,-0.0817,-0.088,-0.0915,-0.0955,-0.1011,-0.104,-0.108,-0.1121,-0.1131,-0.1155,-0.1186,-0.1186,-0.1192,-0.1234,-0.1174,-0.1087,-0.108,-0.1198,-0.1198,-0.1199,0,-0.0442,-0.0516,-0.0543,-0.0572,-0.0669,-0.0679,-0.072,-0.0785,-0.0814,-0.0864,-0.0884,-0.0936,-0.0964,-0.1003,-0.1071,-0.1094,-0.1104,-0.115,-0.1133,-0.1131,-0.1131,-0.1129,-0.1044,-0.1147,-0.1147,-0.1147,-0.1148,0,-0.0383,-0.0398,-0.0504,-0.052,-0.0538,-0.0617,-0.0633,-0.0681,-0.0737,-0.0764,-0.0834,-0.0857,-0.0947,-0.098,-0.1033,-0.1058,-0.1071,-0.1099,-0.1113,-0.1092,-0.1088,-0.1108,-0.1112,-0.1146,-0.1146,-0.1147,-0.1147,0,-0.0285,-0.0356,-0.039,-0.048,-0.0503,-0.0512,-0.0588,-0.0606,-0.066,-0.0692,-0.0704,-0.0788,-0.0831,-0.0903,-0.0967,-0.1003,-0.1017,-0.1042,-0.0996,-0.1004,-0.0983,-0.0984,-0.0906,-0.09,-0.1007,-0.1006,-0.1005,0,-0.0242,-0.0255,-0.0346,-0.0369,-0.0407,-0.0443,-0.0474,-0.0552,-0.0581,-0.0654,-0.0663,-0.0711,-0.0754,-0.0819,-0.0885,-0.0934,-0.0959,-0.0929,-0.0967,-0.0946,-0.0958,-0.0955,-0.0957,-0.0919,-0.0918,-0.0917,-0.0916,0,-0.0159,-0.0193,-0.0235,-0.0289,-0.0323,-0.0369,-0.0418,-0.0433,-0.0523,-0.0551,-0.0596,-0.0629,-0.0695,-0.0742,-0.08,-0.0842,-0.0893,-0.0903,-0.0902,-0.088,-0.0853,-0.0866,-0.0971,-0.0904,-0.0906,-0.0906,-0.0907,-0.0907,-0.0086,-0.0101,-0.0167,-0.0211,-0.0256,-0.0301,-0.0322,-0.0379,-0.0418,-0.0477,-0.0521,-0.0563,-0.0625,-0.0709,-0.0748,-0.0781,-0.0804,-0.0802,-0.0802,-0.08,-0.0791,-0.0848,-0.0792,-0.0793,-0.0793,-0.0793,-0.0794,0,-0.0005,-0.0052,-0.0091,-0.0158,-0.0192,-0.0239,-0.0296,-0.0321,-0.0357,-0.0411,-0.0452,-0.0503,-0.0549,-0.0619,-0.067,-0.0683,-0.0708,-0.0694,-0.0693,-0.0702,-0.0768,-0.0764,-0.0673,-0.0673,-0.0673,-0.0673,-0.0673,-0.0673,0.0033,0.0006,-0.0037,-0.0087,-0.0134,-0.0175,-0.0203,-0.0245,-0.0288,-0.0342,-0.0381,-0.0427,-0.0487,-0.0543,-0.0587,-0.0607,-0.0621,-0.06,-0.0626,-0.0686,-0.0697,-0.0708,-0.0704,-0.0603,-0.0602,-0.0557,-0.0557,-0.0556]},{"header":{"parameterUnit":"m.s-1","parameterCategory":1,"la1":30.2991,"la2":30.254,"lo1":-89.0895,"lo2":-89.0444,"dy":0.0017,"dx":0.0017,"nx":28,"ny":28,"refTime":"2023-07-27T03:00:00:Z","depth":0,"parameterNumber":3,"parameterNumberName":"V-component_of_WINDS"},"data":[0,0,0,0,0,0,0,0,0,0,0,0,0,0,0,0,0,0,0,0,0,0,0,0,0,0,0,0,0,0,0,0,0,0,0,0,0,0,0,0,0,0,0,0,0,0,0,0,0,0,0,0,0,0,0,0,0,0,-0.4225,-0.4223,0,-0.4051,-0.4049,-0.4047,-0.393,-0.3929,-0.3928,-0.3927,-0.3745,-0.3741,-0.3737,0,0,0,0,0,0,0,0,0,0,0,0,0,-0.4454,-0.445,-0.4225,-0.4223,-0.4221,-0.4051,-0.4048,-0.4046,-0.393,-0.3929,-0.3928,-0.3927,-0.3746,-0.3741,-0.3736,0,0,0,0,0,0,0,0,0,0,0,0,0,-0.4324,-0.4449,-0.4226,-0.4142,-0.4133,-0.4051,-0.4048,-0.4045,-0.393,-0.3929,-0.3928,-0.3926,-0.3748,-0.3742,-0.3735,-0.3721,0,0,-0.3717,-0.3714,0,0,0,0,0,0,0,0,-0.4332,-0.4316,-0.4157,-0.4148,-0.4138,-0.4011,-0.4062,-0.3937,-0.393,-0.4007,-0.3927,-0.3926,-0.3834,-0.3821,-0.379,-0.3713,-0.3705,-0.3716,-0.3712,-0.371,-0.3708,0,0,0,0,0,0,0,-0.4341,-0.4323,-0.4156,-0.4155,-0.4143,-0.4112,-0.4093,-0.4038,-0.3929,-0.4,-0.3991,-0.3973,-0.3828,-0.3797,-0.3785,-0.3702,-0.3716,-0.3711,-0.3707,-0.3705,-0.3604,-0.3605,0,0,0,0,0,0,-0.4364,-0.4331,-0.4161,-0.4151,-0.4234,-0.4109,-0.4087,-0.4053,-0.3929,-0.391,-0.3974,-0.3968,-0.3808,-0.3792,-0.3778,-0.3754,-0.371,-0.3704,-0.37,-0.3603,-0.3605,-0.3606,0,0,0,0,0,0,-0.4369,-0.435,-0.4168,-0.4238,-0.4213,-0.4107,-0.4069,-0.405,-0.4018,-0.3909,-0.3889,-0.3962,-0.3806,-0.3787,-0.3737,-0.3746,-0.3701,-0.3695,-0.3602,-0.3604,-0.3605,-0.3706,0,0,0,0,0,0,-0.4376,-0.4352,-0.4347,-0.4239,-0.421,-0.4131,-0.4069,-0.4047,-0.4008,-0.3999,-0.3893,-0.3874,-0.3804,-0.3747,-0.3731,-0.3737,-0.3691,-0.3601,-0.3603,-0.3605,-0.3701,-0.3711,-0.3719,0,0,0,0,0,-0.4385,-0.4381,-0.4347,-0.4327,-0.4201,-0.4132,-0.4115,-0.4036,-0.4009,-0.4002,-0.3933,-0.3877,-0.3748,-0.3742,-0.3723,-0.3728,-0.36,-0.3602,-0.3604,-0.3697,-0.3709,-0.3718,0,0,0,0,0,0,-0.4491,-0.4365,-0.4326,-0.4288,-0.4222,-0.4113,-0.4102,-0.405,-0.3989,-0.3983,-0.3885,-0.3862,-0.3822,-0.3769,-0.3766,-0.3708,-0.3667,-0.3666,-0.3744,-0.3754,-0.3763,-0.3777,-0.3686,0,0,0,0,0,-0.451,-0.4466,-0.4358,-0.4335,-0.4304,-0.4209,-0.4176,-0.412,-0.4047,-0.4018,-0.3945,-0.3875,-0.3818,-0.3783,-0.3725,-0.3693,-0.3668,-0.3686,-0.3695,-0.3703,-0.3703,-0.3682,-0.3689,-0.3613,-0.3613,-0.3613,0,0,-0.4549,-0.4475,-0.4453,-0.4354,-0.4296,-0.4252,-0.4186,-0.4141,-0.4107,-0.4011,-0.396,-0.3903,-0.3819,-0.3778,-0.3756,-0.3733,-0.3718,-0.3706,-0.3713,-0.3708,-0.3685,-0.3693,-0.3699,-0.3615,-0.3615,-0.3614,0,0,-0.4597,-0.4537,-0.4511,-0.4455,-0.4369,-0.4306,-0.43,-0.4198,-0.4158,-0.4105,-0.4032,-0.3989,-0.3893,-0.3836,-0.3795,-0.3822,-0.3769,-0.3805,-0.3852,-0.3833,-0.3839,-0.3843,-0.3854,-0.3859,-0.3806,-0.3806,-0.3806,0,-0.4656,-0.4588,-0.4504,-0.4465,-0.4423,-0.4335,-0.4308,-0.4257,-0.4156,-0.4129,-0.4104,-0.3983,-0.392,-0.3865,-0.3872,-0.3841,-0.383,-0.3818,-0.3845,-0.3849,-0.3852,-0.3861,-0.3865,-0.3811,-0.3811,-0.381,-0.381,0,-0.4665,-0.4618,-0.4608,-0.4514,-0.4471,-0.4438,-0.4349,-0.4315,-0.4264,-0.4203,-0.415,-0.4071,-0.3996,-0.3978,-0.3926,-0.3915,-0.3904,-0.3863,-0.3821,-0.3866,-0.3872,-0.3875,-0.3819,-0.3817,-0.3815,-0.3814,0,0,-0.4776,-0.4637,-0.4635,-0.4591,-0.449,-0.4452,-0.4414,-0.4342,-0.4315,-0.4248,-0.4214,-0.4135,-0.4098,-0.4051,-0.3991,-0.3975,-0.4002,-0.3936,-0.3932,-0.3952,-0.3986,-0.4018,-0.4023,-0.3966,-0.3966,-0.3966,-0.3993,0,-0.4809,-0.474,-0.4663,-0.4619,-0.4576,-0.4491,-0.4458,-0.4392,-0.4334,-0.4287,-0.4222,-0.4169,-0.4122,-0.4094,-0.4073,-0.4004,-0.4008,-0.4,-0.3933,-0.3931,-0.3958,-0.4026,-0.406,-0.4089,-0.3995,-0.3995,-0.3995,0,-0.484,-0.4779,-0.4732,-0.4635,-0.4613,-0.4586,-0.4514,-0.447,-0.4393,-0.4351,-0.43,-0.4237,-0.4192,-0.4154,-0.4091,-0.4087,-0.4055,-0.4016,-0.4015,-0.4007,-0.3967,-0.402,-0.4096,-0.4101,-0.3999,-0.3998,-0.3998,0,-0.4927,-0.4833,-0.4792,-0.4758,-0.4643,-0.4626,-0.4577,-0.4499,-0.446,-0.4396,-0.4371,-0.4302,-0.4264,-0.4212,-0.4132,-0.4112,-0.4077,-0.4033,-0.4041,-0.4044,-0.4039,-0.404,-0.4112,-0.4017,-0.4017,-0.4017,-0.4016,0,-0.4973,-0.4948,-0.483,-0.4806,-0.4774,-0.4686,-0.4657,-0.46,-0.4531,-0.4493,-0.4415,-0.438,-0.4277,-0.4229,-0.4166,-0.4123,-0.4107,-0.4072,-0.4055,-0.4079,-0.4084,-0.4057,-0.4054,-0.4018,-0.4017,-0.4017,-0.4017,0,-0.5066,-0.4986,-0.4937,-0.4833,-0.4806,-0.4788,-0.4698,-0.467,-0.4608,-0.4561,-0.4545,-0.4446,-0.4387,-0.4302,-0.4215,-0.4173,-0.414,-0.4113,-0.4167,-0.4157,-0.4171,-0.4172,-0.4229,-0.4232,-0.4135,-0.4136,-0.4137,0,-0.5102,-0.508,-0.4975,-0.4945,-0.4899,-0.4851,-0.4812,-0.4724,-0.4686,-0.4597,-0.458,-0.4514,-0.4458,-0.4366,-0.4286,-0.422,-0.4191,-0.4216,-0.4181,-0.4206,-0.4193,-0.4195,-0.4193,-0.4225,-0.4226,-0.4227,-0.4228,0,-0.5174,-0.5135,-0.5083,-0.5017,-0.4973,-0.4916,-0.4855,-0.4835,-0.4733,-0.4694,-0.4634,-0.459,-0.4503,-0.4439,-0.4362,-0.4309,-0.4252,-0.424,-0.4239,-0.4263,-0.4296,-0.428,-0.4191,-0.4239,-0.4238,-0.4237,-0.4237,-0.4236,-0.5239,-0.5217,-0.514,-0.5084,-0.5029,-0.4974,-0.4944,-0.4878,-0.4826,-0.475,-0.47,-0.4642,-0.4564,-0.4455,-0.4406,-0.4358,-0.4334,-0.4332,-0.4332,-0.4333,-0.4342,-0.4303,-0.4343,-0.4343,-0.4342,-0.4342,-0.4342,0,-0.5308,-0.5255,-0.5204,-0.5123,-0.5079,-0.503,-0.496,-0.4926,-0.4876,-0.4809,-0.4756,-0.4686,-0.4623,-0.4539,-0.447,-0.4448,-0.442,-0.4433,-0.4434,-0.4423,-0.4366,-0.4375,-0.4457,-0.4457,-0.4457,-0.4457,-0.4457,-0.4457,-0.5339,-0.5299,-0.5252,-0.5183,-0.5128,-0.5073,-0.5037,-0.4986,-0.4932,-0.4858,-0.4807,-0.4752,-0.4678,-0.4603,-0.4543,-0.4519,-0.4498,-0.452,-0.4488,-0.4437,-0.4427,-0.4417,-0.4425,-0.4516,-0.4516,-0.4549,-0.4549,-0.4549]}]]